DW9636 Weather Reports


Display with metric or nautical units.
time (UTC)temp
F
wind
direction
speed
MPH
gust
MPH
rain 1hr
in
rain 24hr
in
rain mn
in
humidity
%
barometer
mb
20260507020008 66 316 0.0 0.0 0.00 0.00 0.00 40 1013.6
20260507014512 66 316 0.0 0.0 0.00 0.00 0.00 44 1013.5
20260507013008 67 283 0.0 0.0 0.00 0.00 0.00 44 1013.5
20260507011512 68 273 0.0 0.0 0.00 0.00 0.00 43 1013.6
20260507010012 69 322 1.0 0.0 0.00 0.00 0.00 42 1013.5
20260507004506 70 330 1.0 0.0 0.00 0.00 0.00 40 1013.3
20260507003011 71 289 1.0 0.0 0.00 0.00 0.00 40 1013.2
20260507001504 72 316 1.0 0.0 0.00 0.00 0.00 38 1012.9
20260507000003 73 314 1.0 0.0 0.00 0.00 0.00 38 1012.9
20260506234502 74 313 1.0 0.0 0.00 0.00 0.00 36 1012.6
20260506233002 75 343 1.0 0.0 0.00 0.00 0.00 35 1012.6
20260506231503 75 321 1.0 0.0 0.00 0.00 0.00 32 1012.7
20260506230100 76 335 1.0 0.0 0.00 0.00 0.00 30 1012.6
20260506224559 77 296 1.0 0.0 0.00 0.00 0.00 29 1012.6
20260506223101 78 294 1.0 0.0 0.00 0.00 0.00 28 1012.7
20260506221603 79 264 0.0 0.0 0.00 0.00 0.00 26 1012.9
20260506220055 78 264 1.0 0.0 0.00 0.00 0.00 24 1013.1
20260506214601 78 334 1.0 0.0 0.00 0.00 0.00 25 1013.2
20260506213055 78 292 1.0 0.0 0.00 0.00 0.00 24 1013.2
20260506211553 77 171 1.0 0.0 0.00 0.00 0.00 27 1013.3
20260506210049 77 201 1.0 0.0 0.00 0.00 0.00 26 1013.4
20260506204548 77 253 1.0 0.0 0.00 0.00 0.00 27 1013.5
20260506203046 77 279 1.0 0.0 0.00 0.00 0.00 27 1013.7
20260506201544 76 291 1.0 0.0 0.00 0.00 0.00 28 1013.7
20260506200042 76 216 1.0 0.0 0.00 0.00 0.00 30 1013.8
20260506194540 75 306 1.0 0.0 0.00 0.00 0.00 31 1014.0
20260506193039 74 335 1.0 0.0 0.00 0.00 0.00 30 1014.1
20260506191537 74 271 1.0 0.0 0.00 0.00 0.00 31 1014.3
20260506190036 73 355 0.0 0.0 0.00 0.00 0.00 31 1014.2
20260506184531 72 254 0.0 0.0 0.00 0.00 0.00 33 1014.5
20260506183029 71 181 0.0 0.0 0.00 0.00 0.00 36 1014.4
20260506181527 69 197 1.0 0.0 0.00 0.00 0.00 36 1014.4
20260506180022 69 240 0.0 0.0 0.00 0.00 0.00 39 1014.5
20260506174519 67 264 0.0 0.0 0.00 0.00 0.00 43 1014.6
20260506173019 67 180 0.0 0.0 0.00 0.00 0.00 44 1014.7
20260506171520 66 5 0.0 0.0 0.00 0.00 0.00 43 1014.7
20260506170011 65 272 0.0 0.0 0.00 0.00 0.00 49 1015.0
20260506164506 62 344 0.0 0.0 0.00 0.00 0.00 54 1015.2
20260506163005 60 330 0.0 0.0 0.00 0.00 0.00 60 1015.2
20260506161611 57 282 0.0 0.0 0.00 0.00 0.00 67 1015.4
20260506160058 55 282 0.0 0.0 0.00 0.00 0.00 73 1015.5
20260506154550 51 317 0.0 0.0 0.00 0.00 0.00 80 1015.6
20260506153046 48 326 0.0 0.0 0.00 0.00 0.00 86 1015.6
20260506151545 46 326 0.0 0.0 0.00 0.00 0.00 90 1015.6
20260506150053 43 326 0.0 0.0 0.00 0.00 0.00 92 1015.7
20260506144559 42 326 0.0 0.0 0.00 0.00 0.00 92 1015.6
20260506143050 40 331 0.0 0.0 0.00 0.00 0.00 93 1015.6
20260506141540 38 331 0.0 0.0 0.00 0.00 0.00 94 1015.3
20260506140054 36 331 0.0 0.0 0.00 0.00 0.00 93 1015.1
20260506134537 34 331 0.0 0.0 0.00 0.00 0.00 92 1015.0
20260506133034 34 331 0.0 0.0 0.00 0.00 0.00 91 1015.0
20260506131542 34 331 0.0 0.0 0.00 0.00 0.00 90 1014.8
20260506130031 34 331 0.0 0.0 0.00 0.00 0.00 90 1014.6
20260506124528 34 331 0.0 0.0 0.00 0.00 0.00 91 1014.6
20260506123037 35 331 0.0 0.0 0.00 0.00 0.00 91 1014.5
20260506121527 35 331 0.0 0.0 0.00 0.00 0.00 91 1014.3
20260506120030 35 331 0.0 0.0 0.00 0.00 0.00 90 1014.2
20260506114521 35 331 0.0 0.0 0.00 0.00 0.00 89 1014.1
20260506113019 36 331 0.0 0.0 0.00 0.00 0.00 89 1013.9
20260506111517 36 331 0.0 0.0 0.00 0.00 0.00 89 1013.8
20260506110013 37 331 0.0 0.0 0.00 0.00 0.00 88 1013.7
20260506104517 38 331 0.0 0.0 0.00 0.00 0.00 88 1013.6
20260506103008 39 331 0.0 0.0 0.00 0.00 0.00 87 1013.6
20260506101505 39 331 0.0 0.0 0.00 0.00 0.00 88 1013.5
20260506100011 40 331 0.0 0.0 0.00 0.00 0.00 88 1013.5
20260506094502 40 331 0.0 0.0 0.00 0.00 0.00 87 1013.3
20260506093058 41 331 0.0 0.0 0.00 0.00 0.00 86 1013.3
20260506091557 41 331 0.0 0.0 0.00 0.00 0.00 86 1013.1
20260506090053 42 331 0.0 0.0 0.00 0.00 0.00 85 1013.2
20260506084553 43 331 0.0 0.0 0.00 0.00 0.00 85 1013.1
20260506083054 44 331 0.0 0.0 0.00 0.00 0.00 84 1013.1
20260506081600 45 331 0.0 0.0 0.00 0.00 0.00 83 1013.0
20260506073037 47 331 0.0 0.0 0.00 0.00 0.00 81 1012.6
20260506071534 47 331 0.0 0.0 0.00 0.00 0.00 81 1012.4
20260506061528 51 331 0.0 0.0 0.00 0.00 0.00 75 1012.0
20260506044524 59 331 0.0 0.0 0.00 0.00 0.00 61 1011.1
20260506043020 60 331 0.0 0.0 0.00 0.00 0.00 60 1011.1
20260506041520 61 331 0.0 0.0 0.00 0.00 0.00 57 1011.0
20260506040016 62 331 0.0 0.0 0.00 0.00 0.00 49 1010.9
20260506034515 63 331 0.0 0.0 0.00 0.00 0.00 42 1010.6
20260506033020 65 331 0.0 0.0 0.00 0.00 0.00 36 1010.4
20260506031523 66 331 0.0 0.0 0.00 0.00 0.00 33 1010.2
20260506030010 67 331 0.0 0.0 0.00 0.00 0.00 32 1010.1
20260506024510 68 333 0.0 0.0 0.00 0.00 0.00 34 1009.8
20260506023008 68 325 0.0 0.0 0.00 0.00 0.00 35 1009.6
20260506021508 68 355 0.0 0.0 0.00 0.00 0.00 36 1009.5